Aeroporto :
LOGIN :

Iscrizione | Disclaimer

   EN    FR    IT 

 










Sommario :    VFR   VFR Marginale   IFR   IFR Intensivo   IFR Molto Intensivo
Visibilità : 
Base nubi : 
>= 8 km
>= 3000ft
5 / 8 km
1000 / 3000 ft
1500m / 5 km
500 / 1000 ft
800 / 1500m
200 / 500 ft
< 800m
< 200 ft
Simboli :   Temporali  Nebbia  Neve Forte  Precipitazioni Forti  Vento > 20 kt
SIGMETs :   Varie  Temporali  Ghiacco  Turbolenza  Onda orograficha  Ceneri Vulcaniche






- Altitudine del aeroporto : 1306 ft
- Codice IATA : ACH


LSZR - Alten Rhein

ULTIMO METAR :
  • 210320Z AUTO 11002KT CAVOK M05/M06 Q1040

METARs OBSOLETI :
  • 210250Z AUTO 11003KT 9999 NSC M04/M05 Q1040
  • 210220Z AUTO 11003KT 9999 NCD M04/M05 Q1040
  • 210150Z AUTO 21003KT 9999 FEW016 M04/M05 Q1040
  • 210120Z AUTO 11002KT 9999 NCD M04/M05 Q1040
  • 210050Z AUTO VRB01KT CAVOK M04/M05 Q1040

Previsioni scadute.
ATIS : +41 71 858 51 66



MetMap, La meteo Aeronautica in un colpo d'occhio ! - Copyright ORBIFLY Dicembre 2007 - Disclaimer

ORBIFLY MET'MAP TEAM :

Programmazione e sviluppo : Alexandra Zaïnal
Concezione : Baudouin d'Aumeries
Aiuto per la programmazione : Marc-Olivier Méhu
Supporto tecnico e logistico : Manuel Goepfert
Aiuto per la traduzione : Arnaldo La Scala

Contatto : metmap@orbifly.com




FONTI E CREDITI :

   NOAA